UAE810 OEMA-OMDB

Flight info

Callsign UAE810
Flight time N/A
Altitude 41000
Route MEDRO M872 GOKSA Y214 RAPMA DCT KUVSO DCT RIBOT M550 GOLGU M318 ATUDO/N0508F350 M318 RURAL Q317 LORID
Aircraft A359/H-SDE2E3GHIJ3J4J5LM1ORWXY/LB1D1

Departure

Time 2026-04-29 14:12
Airport Prince Mohammad Bin Abdulaziz Airport (OEMA)

Arrival

Time N/A
Airport Dubai International Airport (OMDB)
Time Latitude Longitude Altitude Speed Heading
2026-04-29 13:52 24.55250 39.71320 2175 ft 0 kts 76°
2026-04-29 14:01 24.55250 39.71319 2175 ft 1 kts 77°
2026-04-29 14:01 24.55246 39.71304 2175 ft 2 kts 76°
2026-04-29 14:01 24.55243 39.71291 2175 ft 0 kts 76°
2026-04-29 14:02 24.55240 39.71278 2175 ft 2 kts 68°
2026-04-29 14:02 24.55233 39.71264 2175 ft 2 kts 51°
2026-04-29 14:02 24.55223 39.71252 2175 ft 2 kts 38°
2026-04-29 14:02 24.55211 39.71243 2176 ft 2 kts 25°
2026-04-29 14:03 24.55197 39.71238 2175 ft 2 kts 11°
2026-04-29 14:03 24.55182 39.71236 2175 ft 2 kts 357°
2026-04-29 14:03 24.55173 39.71237 2175 ft 0 kts 348°
2026-04-29 14:03 24.55169 39.71238 2175 ft 0 kts 348°
2026-04-29 14:04 24.55170 39.71238 2175 ft 0 kts 348°
2026-04-29 14:05 24.55177 39.71236 2175 ft 2 kts 348°
2026-04-29 14:05 24.55198 39.71231 2175 ft 3 kts 348°
2026-04-29 14:05 24.55225 39.71224 2175 ft 0 kts 339°
2026-04-29 14:05 24.55234 39.71220 2175 ft 0 kts 335°
2026-04-29 14:06 24.55242 39.71210 2175 ft 1 kts 303°
2026-04-29 14:06 24.55244 39.71183 2176 ft 5 kts 267°
2026-04-29 14:06 24.55235 39.71125 2176 ft 9 kts 259°
2026-04-29 14:06 24.55229 39.71066 2176 ft 4 kts 279°
2026-04-29 14:07 24.55263 39.71027 2176 ft 10 kts 335°
2026-04-29 14:07 24.55344 39.71005 2176 ft 15 kts 348°
2026-04-29 14:07 24.55483 39.70972 2176 ft 24 kts 348°
2026-04-29 14:07 24.55681 39.70934 2177 ft 31 kts 349°
2026-04-29 14:08 24.55903 39.70883 2177 ft 32 kts 348°
2026-04-29 14:08 24.56129 39.70834 2178 ft 33 kts 350°
2026-04-29 14:08 24.56365 39.70788 2179 ft 34 kts 349°
2026-04-29 14:08 24.56603 39.70737 2179 ft 35 kts 348°
2026-04-29 14:09 24.56851 39.70683 2180 ft 36 kts 346°
2026-04-29 14:09 24.57100 39.70620 2181 ft 36 kts 355°
2026-04-29 14:09 24.57294 39.70589 2182 ft 21 kts 348°
2026-04-29 14:09 24.57449 39.70560 2182 ft 22 kts 350°
2026-04-29 14:10 24.57588 39.70531 2183 ft 19 kts 347°
2026-04-29 14:10 24.57645 39.70474 2183 ft 10 kts 278°
2026-04-29 14:10 24.57642 39.70388 2183 ft 11 kts 256°
2026-04-29 14:10 24.57585 39.70339 2183 ft 11 kts 185°
2026-04-29 14:11 24.57501 39.70353 2182 ft 12 kts 170°
2026-04-29 14:11 24.57312 39.70383 2182 ft 58 kts 171°
2026-04-29 14:11 24.56682 39.70517 2180 ft 123 kts 165°
2026-04-29 14:11 24.55660 39.70739 2192 ft 173 kts 175°
2026-04-29 14:12 24.54445 39.71002 2674 ft 182 kts 171°
2026-04-29 14:12 24.53151 39.71294 3142 ft 198 kts 172°
2026-04-29 14:12 24.51831 39.71570 4013 ft 192 kts 172°
2026-04-29 14:12 24.50513 39.71843 4530 ft 201 kts 172°
2026-04-29 14:13 24.49080 39.72137 4961 ft 217 kts 172°
2026-04-29 14:13 24.47523 39.72458 5417 ft 234 kts 172°
2026-04-29 14:13 24.45886 39.72798 5867 ft 250 kts 171°
2026-04-29 14:13 24.44104 39.73172 6334 ft 267 kts 171°
2026-04-29 14:14 24.42247 39.73562 6840 ft 282 kts 171°
2026-04-29 14:14 24.40286 39.73975 7566 ft 289 kts 171°
2026-04-29 14:14 24.38318 39.74391 8397 ft 291 kts 169°
2026-04-29 14:14 24.36428 39.75176 9224 ft 298 kts 147°
2026-04-29 14:15 24.34982 39.76805 10096 ft 303 kts 121°
2026-04-29 14:15 24.34334 39.78997 10798 ft 313 kts 94°
2026-04-29 14:15 24.34548 39.81378 11336 ft 327 kts 80°
2026-04-29 14:15 24.34951 39.83885 11807 ft 344 kts 80°
2026-04-29 14:16 24.35373 39.86562 12250 ft 361 kts 80°
2026-04-29 14:16 24.35788 39.89301 12650 ft 378 kts 81°
2026-04-29 14:16 24.36217 39.92204 13047 ft 395 kts 81°
2026-04-29 14:16 24.36656 39.95248 13651 ft 404 kts 81°
2026-04-29 14:17 24.37091 39.98313 14327 ft 411 kts 81°
2026-04-29 14:17 24.37533 40.01416 15021 ft 416 kts 81°
2026-04-29 14:17 24.37973 40.04530 15723 ft 421 kts 81°
2026-04-29 14:17 24.38426 40.07740 16415 ft 426 kts 81°
2026-04-29 14:18 24.38876 40.10928 17136 ft 429 kts 81°
2026-04-29 14:18 24.39331 40.14183 17858 ft 433 kts 80°
2026-04-29 14:18 24.39782 40.17418 18470 ft 438 kts 80°
2026-04-29 14:18 24.40246 40.20758 19054 ft 445 kts 79°
2026-04-29 14:19 24.40714 40.24110 19664 ft 450 kts 79°
2026-04-29 14:19 24.41191 40.27536 20275 ft 455 kts 79°
2026-04-29 14:19 24.41668 40.30967 20878 ft 460 kts 79°
2026-04-29 14:19 24.42152 40.34438 21405 ft 466 kts 78°
2026-04-29 14:20 24.42639 40.37963 21970 ft 471 kts 78°
2026-04-29 14:20 24.43130 40.41503 22479 ft 477 kts 78°
2026-04-29 14:20 24.43633 40.45137 23003 ft 482 kts 78°
2026-04-29 14:20 24.44136 40.48771 23494 ft 487 kts 79°
2026-04-29 14:21 24.44637 40.52433 23919 ft 494 kts 79°
2026-04-29 14:21 24.45153 40.56192 24315 ft 499 kts 81°
2026-04-29 14:21 24.45519 40.59968 24707 ft 505 kts 86°
2026-04-29 14:21 24.45578 40.63867 25067 ft 510 kts 92°
2026-04-29 14:22 24.45315 40.67726 25450 ft 513 kts 98°
2026-04-29 14:22 24.44905 40.71655 25809 ft 517 kts 99°
2026-04-29 14:22 24.44468 40.75567 26144 ft 521 kts 99°
2026-04-29 14:22 24.44036 40.79483 26477 ft 524 kts 99°
2026-04-29 14:23 24.43606 40.83474 26823 ft 527 kts 99°
2026-04-29 14:23 24.43180 40.87479 27106 ft 531 kts 99°
2026-04-29 14:23 24.42766 40.91475 27375 ft 534 kts 100°
2026-04-29 14:23 24.42348 40.95510 27674 ft 537 kts 100°
2026-04-29 14:24 24.41922 40.99587 27924 ft 540 kts 100°
2026-04-29 14:24 24.41496 41.03682 28171 ft 543 kts 101°
2026-04-29 14:24 24.41061 41.07840 28462 ft 546 kts 100°
2026-04-29 14:24 24.40634 41.11946 28722 ft 549 kts 100°
2026-04-29 14:25 24.40204 41.16077 29023 ft 551 kts 100°
2026-04-29 14:25 24.39765 41.20286 29337 ft 552 kts 100°
2026-04-29 14:25 24.39325 41.24464 29613 ft 554 kts 100°
2026-04-29 14:25 24.38881 41.28657 29893 ft 557 kts 100°
2026-04-29 14:26 24.38437 41.32843 30166 ft 559 kts 100°
2026-04-29 14:26 24.37992 41.37045 30448 ft 560 kts 100°
2026-04-29 14:26 24.37536 41.41304 30726 ft 562 kts 100°
2026-04-29 14:26 24.37084 41.45534 30994 ft 563 kts 99°
2026-04-29 14:27 24.36627 41.49795 31244 ft 565 kts 100°
2026-04-29 14:27 24.36169 41.54071 31574 ft 565 kts 99°
2026-04-29 14:27 24.35714 41.58309 31994 ft 564 kts 100°
2026-04-29 14:28 24.34797 41.66808 32997 ft 558 kts 101°
2026-04-29 14:28 24.34339 41.71034 33497 ft 555 kts 101°
2026-04-29 14:28 24.33883 41.75228 34018 ft 552 kts 101°
2026-04-29 14:28 24.33392 41.79377 34583 ft 546 kts 103°
2026-04-29 14:29 24.32723 41.83436 35147 ft 540 kts 106°
2026-04-29 14:29 24.31856 41.87369 35675 ft 534 kts 110°
2026-04-29 14:29 24.30841 41.91292 36160 ft 531 kts 110°
2026-04-29 14:29 24.29811 41.95158 36525 ft 530 kts 111°
2026-04-29 14:30 24.28784 41.98990 36917 ft 529 kts 110°
2026-04-29 14:30 24.27750 42.02856 37313 ft 527 kts 111°
2026-04-29 14:30 24.26737 42.06671 37683 ft 526 kts 110°
2026-04-29 14:30 24.25714 42.10536 38028 ft 525 kts 110°
2026-04-29 14:31 24.24705 42.14347 38403 ft 524 kts 110°
2026-04-29 14:31 24.23699 42.18136 38808 ft 522 kts 110°
2026-04-29 14:31 24.22686 42.21974 39195 ft 520 kts 110°
2026-04-29 14:31 24.21684 42.25750 39514 ft 520 kts 110°
2026-04-29 14:32 24.20680 42.29525 39751 ft 520 kts 110°
2026-04-29 14:32 24.19669 42.33330 39969 ft 521 kts 110°
2026-04-29 14:32 24.18656 42.37140 40150 ft 522 kts 110°
2026-04-29 14:32 24.17649 42.40927 40315 ft 523 kts 110°
2026-04-29 14:33 24.16637 42.44731 40501 ft 523 kts 110°
2026-04-29 14:33 24.15607 42.48581 40689 ft 523 kts 110°
2026-04-29 14:33 24.14595 42.52372 40866 ft 524 kts 110°
2026-04-29 14:33 24.13578 42.56175 41001 ft 524 kts 110°
2026-04-29 14:34 24.12553 42.60006 40999 ft 525 kts 110°
2026-04-29 14:34 24.10512 42.67629 41010 ft 523 kts 110°
2026-04-29 14:35 24.08459 42.75296 41021 ft 523 kts 110°
2026-04-29 14:35 24.06409 42.82904 41016 ft 523 kts 110°
2026-04-29 14:36 24.04343 42.90551 41011 ft 523 kts 110°
2026-04-29 14:36 24.02297 42.98151 41017 ft 523 kts 110°
2026-04-29 14:37 24.00237 43.05774 41013 ft 523 kts 110°
2026-04-29 14:37 23.98175 43.13366 41014 ft 522 kts 110°
2026-04-29 14:38 23.96124 43.20899 41010 ft 521 kts 110°
2026-04-29 14:38 23.94044 43.28517 41007 ft 522 kts 110°
2026-04-29 14:39 23.91977 43.36074 41016 ft 521 kts 110°
2026-04-29 14:39 23.89911 43.43613 41021 ft 519 kts 110°
2026-04-29 14:40 23.87817 43.51123 41019 ft 520 kts 110°
2026-04-29 14:40 23.85719 43.58684 41018 ft 519 kts 110°
2026-04-29 14:41 23.83641 43.66218 41007 ft 519 kts 111°
2026-04-29 14:41 23.81572 43.73748 41007 ft 519 kts 111°
2026-04-29 14:42 23.79489 43.81276 41002 ft 519 kts 110°
2026-04-29 14:42 23.77737 43.88919 40998 ft 522 kts 104°
2026-04-29 14:43 23.76752 43.96776 41002 ft 525 kts 98°
2026-04-29 14:43 23.76182 44.04670 40998 ft 525 kts 97°
2026-04-29 14:44 23.75618 44.12553 40998 ft 524 kts 97°
2026-04-29 14:44 23.75030 44.20503 40996 ft 525 kts 97°
2026-04-29 14:45 23.74437 44.28368 40989 ft 525 kts 97°
2026-04-29 14:45 23.73833 44.36294 40998 ft 525 kts 98°
2026-04-29 14:46 23.73226 44.44220 41002 ft 525 kts 98°
2026-04-29 14:46 23.72613 44.52151 41003 ft 526 kts 97°
2026-04-29 14:47 23.71995 44.60075 41003 ft 526 kts 97°
2026-04-29 14:47 23.71377 44.68008 40992 ft 527 kts 98°
2026-04-29 14:48 23.70755 44.75940 40982 ft 526 kts 98°
2026-04-29 14:48 23.70125 44.83897 40985 ft 527 kts 98°
2026-04-29 14:49 23.69491 44.91841 40980 ft 526 kts 98°
2026-04-29 14:49 23.68853 44.99779 40974 ft 526 kts 98°
2026-04-29 14:50 23.68212 45.07686 40971 ft 527 kts 98°
2026-04-29 14:50 23.67566 45.15649 40969 ft 526 kts 98°
2026-04-29 14:51 23.66912 45.23583 40969 ft 527 kts 97°
2026-04-29 14:51 23.66260 45.31519 40966 ft 526 kts 98°
2026-04-29 14:52 23.65607 45.39414 40956 ft 525 kts 98°
2026-04-29 14:52 23.64947 45.47299 40951 ft 525 kts 97°
2026-04-29 14:53 23.64279 45.55242 40942 ft 525 kts 98°
2026-04-29 14:53 23.63614 45.63096 40937 ft 525 kts 98°
2026-04-29 14:54 23.62944 45.71034 40921 ft 523 kts 98°
2026-04-29 14:54 23.62276 45.78877 40916 ft 523 kts 98°
2026-04-29 14:55 23.61601 45.86730 40912 ft 522 kts 98°
2026-04-29 14:55 23.60921 45.94578 40904 ft 521 kts 98°
2026-04-29 14:56 23.60234 46.02424 40906 ft 522 kts 98°
2026-04-29 14:56 23.59547 46.10267 40923 ft 521 kts 98°
2026-04-29 14:57 23.58854 46.18116 40940 ft 521 kts 98°
2026-04-29 14:57 23.58160 46.25929 40949 ft 521 kts 98°
2026-04-29 14:58 23.57460 46.33774 40961 ft 521 kts 98°
2026-04-29 14:58 23.56751 46.41648 40971 ft 521 kts 98°
2026-04-29 14:59 23.56049 46.49438 40985 ft 520 kts 98°
2026-04-29 14:59 23.55338 46.57252 40971 ft 520 kts 98°
2026-04-29 15:00 23.54622 46.65119 40949 ft 520 kts 98°
2026-04-29 15:00 23.53907 46.72955 40921 ft 518 kts 98°
2026-04-29 15:01 23.53212 46.80537 40907 ft 518 kts 99°
2026-04-29 15:01 23.52491 46.88303 40896 ft 518 kts 99°
2026-04-29 15:02 23.51761 46.96110 40891 ft 518 kts 98°
2026-04-29 15:02 23.51030 47.03915 40881 ft 519 kts 98°
2026-04-29 15:03 23.50295 47.11713 40872 ft 519 kts 99°
2026-04-29 15:03 23.49556 47.19506 40871 ft 518 kts 98°
2026-04-29 15:04 23.48811 47.27295 40869 ft 519 kts 99°
2026-04-29 15:04 23.48062 47.35089 40870 ft 518 kts 99°
2026-04-29 15:05 23.47312 47.42853 40869 ft 518 kts 99°
2026-04-29 15:05 23.46558 47.50621 40867 ft 518 kts 99°
2026-04-29 15:06 23.45803 47.58406 40865 ft 517 kts 99°
2026-04-29 15:06 23.45049 47.66157 40851 ft 516 kts 99°
2026-04-29 15:07 23.44317 47.73643 40845 ft 516 kts 99°
2026-04-29 15:07 23.43546 47.81453 40840 ft 514 kts 99°
2026-04-29 15:08 23.42780 47.89182 40837 ft 514 kts 99°
2026-04-29 15:08 23.42008 47.96891 40830 ft 514 kts 99°
2026-04-29 15:09 23.41236 48.04593 40826 ft 514 kts 99°
2026-04-29 15:09 23.40456 48.12315 40824 ft 513 kts 99°
2026-04-29 15:10 23.39678 48.19980 40822 ft 513 kts 99°
2026-04-29 15:10 23.38892 48.27668 40820 ft 513 kts 99°
2026-04-29 15:11 23.38186 48.35396 40813 ft 514 kts 96°
2026-04-29 15:11 23.37859 48.43167 40820 ft 514 kts 95°
2026-04-29 15:12 23.37561 48.50897 40817 ft 514 kts 95°
2026-04-29 15:12 23.37252 48.58650 40812 ft 513 kts 95°
2026-04-29 15:13 23.36932 48.66391 40798 ft 513 kts 95°
2026-04-29 15:13 23.36612 48.74106 40791 ft 512 kts 95°
2026-04-29 15:14 23.36284 48.81820 40788 ft 513 kts 95°
2026-04-29 15:14 23.35957 48.89437 40776 ft 513 kts 95°
2026-04-29 15:15 23.35651 48.96446 40757 ft 512 kts 95°
2026-04-29 15:15 23.35307 49.04208 40743 ft 512 kts 95°
2026-04-29 15:16 23.34944 49.11930 40740 ft 512 kts 96°
2026-04-29 15:16 23.34551 49.19542 40734 ft 512 kts 96°
2026-04-29 15:17 23.34149 49.27217 40733 ft 512 kts 96°
2026-04-29 15:17 23.33742 49.34932 40739 ft 512 kts 96°
2026-04-29 15:18 23.33331 49.42664 40749 ft 512 kts 96°
2026-04-29 15:18 23.32916 49.50385 40752 ft 512 kts 96°
2026-04-29 15:19 23.32501 49.58071 40755 ft 512 kts 96°
2026-04-29 15:19 23.32080 49.65770 40754 ft 512 kts 96°
2026-04-29 15:20 23.31655 49.73490 40759 ft 512 kts 96°
2026-04-29 15:20 23.31228 49.81213 40757 ft 512 kts 96°
2026-04-29 15:21 23.30799 49.88888 40755 ft 511 kts 96°
2026-04-29 15:21 23.30362 49.96606 40758 ft 511 kts 96°
2026-04-29 15:22 23.29926 50.04269 40756 ft 510 kts 96°
2026-04-29 15:22 23.29482 50.11961 40752 ft 511 kts 96°
2026-04-29 15:23 23.29036 50.19649 40752 ft 510 kts 96°
2026-04-29 15:23 23.28585 50.27319 40753 ft 511 kts 96°
2026-04-29 15:24 23.28130 50.35017 40752 ft 511 kts 96°
2026-04-29 15:24 23.27673 50.42690 40760 ft 510 kts 96°
2026-04-29 15:25 23.27212 50.50377 40760 ft 510 kts 96°
2026-04-29 15:25 23.26750 50.58030 40760 ft 510 kts 96°
2026-04-29 15:26 23.26282 50.65687 40760 ft 509 kts 96°
2026-04-29 15:26 23.25820 50.73243 40744 ft 509 kts 96°
2026-04-29 15:27 23.25348 50.80892 40738 ft 509 kts 96°
2026-04-29 15:27 23.24869 50.88561 40740 ft 508 kts 96°
2026-04-29 15:28 23.24391 50.96160 40728 ft 508 kts 96°
2026-04-29 15:28 23.23907 51.03798 40727 ft 508 kts 96°
2026-04-29 15:29 23.23416 51.11435 40727 ft 508 kts 96°
2026-04-29 15:30 23.22426 51.26752 40728 ft 510 kts 96°
2026-04-29 15:30 23.21925 51.34410 40732 ft 508 kts 96°
2026-04-29 15:31 23.21422 51.42046 40736 ft 509 kts 96°
2026-04-29 15:31 23.20914 51.49701 40733 ft 508 kts 96°
2026-04-29 15:32 23.20403 51.57343 40731 ft 509 kts 96°
2026-04-29 15:32 23.19888 51.64972 40736 ft 508 kts 96°
2026-04-29 15:33 23.19369 51.72639 40726 ft 509 kts 96°
2026-04-29 15:33 23.18848 51.80282 40731 ft 509 kts 97°
2026-04-29 15:34 23.18324 51.87911 40731 ft 509 kts 97°